Wind_Speed
39 38 42 43 42 45 49 48 52 46 48 45 49 50 52 54 60 61 65 66 71 75 77 80 76 68 65 65 60 53 43 42 43 46 42 39 43 47 52 54 54 51 49 52
41 42 44 46 43 49 47 48 50 48 45 52 49 53 55 58 63 65 67 70 74 77 79 79 73 68 65 64 51 45 45 41 45 49 38 41 46 50 57 59 61 55 47 50
50 48 53 55 54 52 53 53 51 51 51 48 50 55 60 60 64 68 69 73 76 78 79 77 72 67 65 58 53 47 44 47 51 43 38 44 49 55 61 64 60 52 50 51
50 52 58 62 52 53 52 52 50 52 50 54 55 54 60 67 70 69 72 75 77 79 78 76 71 67 65 55 51 43 49 50 47 39 43 48 55 60 66 65 56 50 49 53
54 56 60 59 52 52 52 51 53 53 55 59 61 59 60 69 71 72 74 77 78 78 78 75 71 66 64 51 50 46 51 52 43 42 48 53 60 66 68 62 52 47 51 53
54 59 63 57 55 55 59 54 57 57 59 64 64 69 67 68 69 69 73 77 76 77 79 75 71 65 61 46 48 52 52 47 41 48 53 59 65 70 66 56 47 49 51 51
54 59 65 58 58 59 56 59 58 60 63 64 66 71 74 73 69 71 72 75 75 76 77 73 68 64 50 48 48 53 54 44 46 51 57 64 70 69 60 48 48 51 52 46
56 62 63 59 62 60 58 59 61 62 66 65 69 71 72 71 73 71 71 73 73 74 73 71 64 60 49 49 51 53 51 44 49 54 61 69 72 65 51 47 49 50 46 48
54 62 57 60 61 62 62 62 63 65 65 71 72 73 70 70 70 71 72 72 73 73 70 67 63 56 48 49 51 52 45 46 51 58 64 72 69 55 46 47 48 46 47 46
61 59 59 61 61 61 62 64 65 68 71 73 74 72 71 72 70 71 72 73 74 71 67 61 58 55 51 50 50 48 42 47 52 58 67 71 62 49 46 46 44 44 46 42
60 58 59 60 60 62 63 64 66 69 73 75 74 72 72 72 71 72 70 72 72 70 62 59 54 51 51 50 50 46 41 46 54 60 68 70 56 46 45 43 41 44 41 38
59 60 60 59 62 63 65 68 72 75 72 74 75 74 75 74 73 73 69 69 70 69 59 56 52 48 47 49 48 44 42 47 55 60 67 64 49 44 44 39 39 40 36 31
60 62 62 61 63 68 72 74 73 74 76 75 75 77 78 75 73 70 71 71 68 66 55 53 48 46 46 47 45 41 42 49 54 61 65 57 46 43 38 40 38 37 33 27
63 64 65 68 70 71 72 72 74 76 78 79 79 78 77 74 69 68 67 70 65 61 50 49 45 43 45 46 42 39 43 49 55 62 61 50 41 41 38 36 34 33 30 26
67 70 71 72 73 74 76 79 79 80 81 81 81 78 75 72 68 66 63 67 63 56 47 43 41 41 42 42 38 39 43 48 54 60 58 43 38 39 36 35 30 31 28 24
70 72 74 76 78 79 81 82 83 82 82 80 78 75 74 73 68 65 60 61 58 49 44 38 40 39 40 39 33 37 42 48 54 60 53 36 36 36 34 31 28 26 22 18
75 76 79 81 81 82 83 83 83 81 80 79 80 80 79 77 73 68 66 58 51 45 42 35 36 36 39 35 30 34 41 46 53 57 48 31 33 33 31 27 24 20 15 10
79 80 81 85 86 86 83 81 81 81 81 82 83 86 86 80 77 70 63 56 44 42 38 32 35 34 36 30 28 33 40 45 51 53 40 26 28 30 27 24 20 15 6 2
82 83 83 83 82 80 80 80 80 80 81 85 86 83 76 72 69 63 58 49 39 36 33 30 33 33 30 27 26 32 38 43 49 49 33 22 23 26 23 21 16 11 6 12
81 81 80 77 74 75 76 70 67 65 62 64 65 63 58 54 52 48 43 36 35 30 28 27 30 29 25 23 25 30 36 41 46 45 26 20 19 22 22 17 11 11 8 14
75 72 69 66 60 56 53 56 60 58 55 55 54 52 50 47 43 34 25 28 30 24 24 25 26 23 20 18 24 28 33 39 43 41 23 20 14 18 19 12 7 6 5 12
58 57 49 47 53 56 53 52 54 55 50 50 52 48 43 37 28 19 21 23 22 22 21 24 22 19 16 17 22 26 32 37 40 39 21 17 9 15 16 10 5 3 3 12
54 43 47 53 54 51 48 46 44 46 48 47 43 34 24 19 19 20 22 20 18 18 20 22 18 13 14 16 20 24 29 35 38 37 22 14 8 11 16 7 2 3 8 8
36 43 50 50 50 48 42 39 41 44 41 38 27 26 23 22 22 24 19 15 16 18 19 16 15 11 12 13 18 21 27 33 38 37 25 11 8 7 12 6 2 3 9 12
43 49 50 50 47 44 39 39 37 39 35 29 27 28 22 24 26 20 16 16 18 17 16 13 10 11 10 12 16 19 24 30 37 37 26 10 10 6 5 7 3 7 7 13
48 48 45 44 44 41 37 36 35 34 29 28 21 23 26 28 23 17 15 17 16 15 13 9 5 10 9 10 14 17 22 28 34 36 28 9 10 7 2 4 3 9 10 10
45 43 40 38 39 38 36 35 33 29 29 20 21 23 26 24 19 16 18 16 13 11 8 6 3 10 7 8 12 14 18 24 30 35 30 10 7 7 6 8 3 8 12 12
Wind_Direction
305 305 302 303 305 310 309 305 306 311 309 308 313 312 315 319 314 319 321 322 322 319 317 317 320 323 321 319 314 311 301 295 294 294 281 277 283 287 292 293 295 292 264 252
306 307 305 308 304 308 306 308 312 309 312 312 314 314 316 320 318 322 322 323 321 320 319 318 320 321 322 317 316 311 304 300 298 297 280 283 290 292 296 297 298 287 265 252
310 308 309 308 315 313 311 309 309 308 311 311 313 316 318 317 320 323 322 321 323 321 320 319 323 322 320 314 313 309 302 301 305 293 286 294 296 296 299 301 296 284 267 261
307 310 308 308 313 306 306 305 306 308 309 312 313 315 319 317 322 323 322 320 320 320 319 320 321 322 319 315 313 307 304 305 304 291 293 298 301 302 304 302 294 281 270 268
307 307 307 306 306 304 305 307 306 309 311 313 311 313 319 318 320 322 320 319 319 319 318 320 319 320 320 315 313 307 307 309 298 294 300 303 305 308 307 301 290 279 278 276
308 305 306 311 306 305 305 306 308 310 312 311 312 314 317 317 319 320 318 317 318 317 318 320 318 318 319 312 310 309 308 306 298 303 307 308 311 311 307 299 291 287 285 280
306 304 304 307 304 303 304 308 310 307 307 308 311 313 317 319 319 317 317 316 316 316 317 317 318 316 316 312 307 309 311 304 304 309 311 312 314 314 307 300 295 292 292 274
305 305 303 304 301 300 303 305 303 305 307 308 309 311 315 315 317 318 316 313 313 315 318 317 315 316 312 309 309 312 312 304 310 312 313 316 319 314 308 300 300 301 289 289
303 295 297 297 298 300 303 302 302 303 303 305 308 311 314 316 316 316 313 312 313 315 318 316 315 313 310 308 309 312 309 308 313 315 317 319 322 315 307 304 308 301 298 301
295 296 297 295 296 298 298 298 300 302 305 306 309 310 313 314 314 314 313 312 312 315 317 313 315 311 311 312 312 313 308 313 315 318 321 324 320 315 307 311 310 307 309 301
291 294 297 298 297 296 298 300 302 303 304 304 307 310 310 311 311 311 311 311 311 314 317 311 312 311 313 313 314 313 311 315 318 320 324 325 320 313 313 316 313 314 310 302
295 294 296 296 295 296 297 299 300 301 303 305 305 307 308 309 308 309 309 309 311 312 315 311 311 312 313 315 316 311 312 317 319 322 325 325 318 313 320 321 317 316 309 303
294 294 295 295 295 295 297 299 301 302 303 303 304 304 305 307 309 311 311 310 310 311 311 309 310 309 313 318 316 309 315 319 322 326 327 324 319 319 328 324 323 314 306 299
294 294 294 295 297 298 299 299 300 301 301 302 303 304 305 307 307 306 308 307 310 312 307 310 308 309 310 317 315 311 318 321 325 327 329 324 322 329 331 330 321 311 301 290
291 294 297 298 298 298 299 300 301 301 301 301 301 303 303 304 304 304 307 306 311 310 303 307 306 309 312 315 314 313 317 323 327 331 332 326 324 334 334 334 322 313 303 289
294 296 296 296 298 300 301 301 301 301 301 301 301 300 299 298 301 301 305 307 310 307 299 305 307 307 311 312 311 315 319 325 331 334 333 324 328 338 337 338 327 320 315 293
296 296 297 298 300 300 301 300 300 300 300 300 299 299 299 299 298 298 300 305 305 301 299 302 304 305 309 310 308 316 323 327 334 336 333 323 329 341 340 341 337 333 322 293
296 299 300 300 300 301 300 300 300 300 299 298 297 298 301 299 298 299 297 298 296 295 297 300 304 304 309 309 311 319 325 331 335 339 333 320 328 343 343 344 350 352 346 48
299 300 300 301 303 303 301 299 297 295 293 292 294 297 299 299 299 297 296 294 289 291 292 298 306 307 309 311 313 320 326 332 337 342 333 328 332 343 346 346 351 23 93 117
301 302 301 301 299 298 300 301 299 297 298 299 301 305 306 305 301 299 293 289 283 287 287 294 304 302 302 306 312 320 326 333 340 345 335 336 330 340 348 345 342 19 104 123
298 298 300 303 303 302 305 306 308 310 313 310 310 309 309 303 297 295 291 281 282 283 284 293 298 292 296 297 312 320 327 334 343 348 338 337 332 338 345 342 338 356 85 114
299 301 305 308 311 312 314 313 311 313 315 314 312 313 310 306 300 298 298 290 286 283 285 295 295 285 291 294 314 321 330 336 346 350 341 343 338 351 351 339 336 205 97 148
306 306 313 311 312 312 312 313 313 314 316 315 316 315 321 323 315 311 300 292 280 288 289 294 284 281 291 293 316 324 332 341 350 353 347 345 337 332 347 344 307 204 174 157
304 311 313 313 310 310 311 314 315 317 318 317 316 319 319 318 314 306 301 288 290 293 288 284 265 285 282 291 317 325 337 346 354 358 352 348 341 325 5 0 185 193 191 171
304 309 312 310 308 309 308 310 312 318 317 312 310 308 317 316 313 303 299 296 296 289 280 260 255 281 276 298 317 330 343 349 357 1 357 352 0 304 327 4 184 180 186 183
309 310 310 310 311 308 306 310 313 319 318 320 316 315 319 319 313 307 306 304 299 284 261 239 255 278 274 297 326 338 346 354 0 6 4 8 6 2 1 350 156 181 179 174
310 310 311 311 310 306 305 307 310 318 319 313 313 317 324 323 312 312 311 305 291 263 239 224 283 280 271 291 327 344 349 359 5 12 11 11 17 8 63 35 88 191 187 184
Height
5734 5729 5723 5718 5715 5709 5701 5694 5686 5686 5673 5670 5662 5652 5644 5638 5626 5619 5608 5596 5583 5571 5558 5545 5533 5523 5514 5502 5492 5485 5481 5479 5475 5472 5470 5469 5468 5467 5464 5461 5458 5457 5451 5450
5723 5719 5712 5708 5704 5699 5689 5680 5672 5667 5666 5652 5648 5638 5631 5623 5610 5603 5591 5580 5568 5555 5542 5528 5518 5508 5498 5487 5478 5473 5469 5465 5461 5457 5455 5453 5451 5448 5444 5439 5434 5429 5429 5430
5709 5705 5697 5692 5689 5682 5675 5666 5661 5655 5649 5645 5639 5625 5614 5609 5600 5587 5576 5564 5551 5538 5525 5512 5503 5493 5483 5473 5467 5461 5457 5451 5445 5441 5440 5437 5434 5428 5422 5416 5410 5406 5405 5406
5700 5696 5687 5677 5680 5671 5666 5658 5651 5645 5637 5630 5624 5619 5605 5589 5580 5572 5560 5548 5535 5521 5509 5498 5488 5479 5468 5459 5453 5448 5442 5435 5429 5426 5423 5419 5414 5407 5399 5390 5384 5382 5382 5381
5690 5684 5677 5671 5666 5658 5653 5652 5638 5631 5622 5614 5605 5604 5599 5577 5566 5554 5543 5531 5520 5507 5494 5484 5473 5465 5454 5446 5440 5434 5427 5420 5414 5410 5406 5401 5393 5384 5374 5366 5360 5359 5357 5354
5678 5668 5659 5658 5650 5644 5637 5634 5626 5617 5610 5598 5590 5580 5582 5573 5561 5549 5532 5518 5507 5492 5478 5467 5459 5451 5440 5433 5427 5420 5413 5405 5399 5394 5388 5381 5372 5361 5350 5342 5337 5334 5331 5327
5663 5653 5647 5645 5637 5630 5624 5619 5610 5603 5597 5589 5579 5565 5552 5548 5545 5530 5518 5505 5492 5480 5467 5455 5447 5438 5428 5421 5414 5407 5399 5391 5385 5379 5372 5362 5352 5338 5326 5319 5315 5311 5306 5302
5649 5639 5632 5628 5621 5616 5611 5605 5597 5593 5580 5574 5565 5556 5545 5533 5522 5515 5505 5492 5480 5469 5456 5442 5433 5424 5416 5408 5402 5393 5386 5378 5372 5365 5355 5343 5330 5315 5305 5300 5294 5287 5281 5277
5641 5624 5622 5613 5608 5601 5595 5590 5583 5575 5569 5558 5552 5544 5535 5525 5514 5501 5489 5477 5465 5454 5444 5429 5419 5409 5403 5395 5389 5380 5373 5366 5359 5351 5338 5324 5310 5297 5290 5282 5274 5266 5259 5251
5618 5619 5612 5602 5596 5591 5582 5577 5571 5560 5551 5543 5537 5526 5520 5508 5498 5488 5476 5463 5451 5441 5430 5418 5408 5398 5390 5383 5376 5368 5361 5354 5346 5337 5323 5307 5293 5283 5276 5267 5258 5249 5241 5233
5602 5601 5600 5590 5582 5575 5570 5561 5555 5546 5532 5524 5517 5512 5500 5492 5481 5470 5461 5448 5436 5428 5418 5406 5398 5389 5380 5372 5364 5356 5350 5342 5334 5323 5309 5295 5280 5272 5264 5253 5244 5235 5227 5220
5591 5585 5583 5579 5567 5560 5555 5547 5536 5528 5525 5511 5499 5491 5482 5474 5463 5453 5444 5432 5422 5412 5405 5394 5386 5379 5371 5361 5353 5345 5338 5331 5323 5311 5296 5281 5271 5261 5250 5242 5233 5224 5216 5211
5576 5571 5565 5561 5554 5544 5537 5529 5521 5510 5500 5494 5487 5473 5464 5456 5446 5436 5426 5416 5406 5398 5391 5382 5375 5368 5360 5351 5343 5335 5328 5320 5311 5299 5284 5271 5260 5252 5242 5229 5222 5215 5209 5203
5556 5552 5547 5540 5535 5527 5519 5511 5503 5493 5482 5471 5463 5455 5445 5437 5430 5419 5411 5400 5391 5384 5377 5370 5363 5357 5350 5341 5333 5325 5318 5311 5300 5288 5274 5260 5251 5243 5233 5226 5217 5208 5202 5197
5538 5533 5528 5523 5515 5507 5499 5489 5485 5475 5464 5454 5443 5433 5426 5419 5411 5402 5394 5384 5377 5371 5365 5358 5352 5347 5339 5332 5324 5317 5310 5303 5292 5279 5264 5252 5245 5236 5227 5219 5211 5202 5195 5189
5521 5515 5507 5499 5493 5486 5477 5468 5457 5451 5441 5431 5422 5415 5407 5398 5392 5384 5377 5369 5363 5358 5352 5348 5342 5336 5330 5323 5316 5310 5304 5294 5283 5270 5257 5247 5240 5231 5223 5216 5208 5198 5191 5185
5501 5493 5485 5479 5471 5464 5456 5446 5434 5423 5415 5408 5397 5389 5382 5375 5369 5364 5359 5354 5349 5343 5339 5336 5332 5327 5322 5315 5309 5303 5297 5288 5276 5263 5250 5243 5237 5228 5222 5215 5208 5199 5191 5186
5477 5472 5464 5454 5445 5438 5432 5423 5413 5402 5392 5382 5374 5366 5360 5353 5347 5345 5341 5338 5335 5330 5326 5325 5321 5318 5312 5307 5302 5297 5290 5281 5272 5259 5247 5241 5234 5228 5222 5216 5211 5202 5196 5191
5457 5449 5441 5431 5422 5411 5401 5393 5386 5377 5370 5361 5354 5347 5339 5333 5326 5324 5321 5322 5321 5320 5317 5314 5311 5307 5303 5299 5295 5291 5285 5277 5267 5254 5244 5238 5233 5228 5223 5218 5215 5209 5205 5202
5435 5426 5417 5408 5400 5390 5381 5375 5364 5357 5352 5341 5334 5329 5322 5316 5309 5306 5305 5307 5307 5308 5307 5305 5302 5299 5296 5293 5290 5286 5280 5273 5263 5251 5242 5237 5233 5228 5225 5221 5218 5216 5214 5212
5414 5406 5398 5390 5381 5373 5366 5358 5346 5339 5335 5326 5319 5313 5306 5301 5295 5293 5293 5295 5295 5298 5297 5297 5294 5293 5290 5288 5286 5282 5277 5269 5260 5249 5241 5237 5232 5229 5226 5224 5222 5221 5220 5220
5396 5388 5382 5374 5365 5358 5353 5344 5334 5326 5320 5314 5306 5300 5293 5288 5284 5285 5285 5286 5287 5288 5288 5288 5287 5286 5284 5283 5282 5278 5273 5266 5257 5247 5240 5235 5232 5229 5227 5226 5226 5226 5226 5227
5380 5374 5369 5361 5353 5346 5341 5334 5326 5318 5312 5304 5297 5290 5285 5282 5282 5280 5279 5279 5280 5281 5281 5281 5280 5280 5279 5279 5278 5275 5270 5263 5255 5246 5238 5235 5232 5230 5228 5228 5228 5229 5231 5233
5368 5364 5357 5350 5342 5334 5329 5325 5318 5311 5304 5298 5292 5287 5283 5280 5278 5275 5274 5273 5275 5274 5274 5275 5275 5275 5275 5275 5275 5272 5268 5261 5254 5246 5238 5234 5231 5231 5230 5229 5230 5231 5234 5237
5357 5351 5345 5338 5332 5325 5319 5315 5310 5304 5298 5292 5288 5284 5280 5276 5273 5270 5269 5269 5268 5268 5269 5270 5270 5271 5272 5272 5272 5270 5266 5260 5254 5246 5237 5234 5232 5231 5231 5231 5232 5234 5236 5240
5346 5339 5333 5327 5321 5315 5310 5306 5302 5296 5291 5287 5284 5280 5276 5272 5268 5266 5265 5265 5264 5265 5266 5267 5267 5268 5269 5270 5270 5268 5264 5259 5253 5246 5238 5234 5233 5231 5231 5232 5233 5236 5239 5242
5334 5328 5323 5318 5312 5306 5302 5298 5294 5290 5286 5282 5280 5276 5273 5268 5265 5263 5263 5262 5261 5262 5263 5264 5265 5266 5267 5267 5268 5267 5264 5259 5255 5249 5240 5235 5235 5233 5234 5235 5235 5237 5240 5244